Location: Coffee Ditch
(40.9640°N, 122.7500°W)
Time: 14:17:55
(UTC+00:00)

Cosmos 1544 Rocket - Pass Details

Date: 08 September 2024
Orbit: 601 x 625 km, 82.5° (Epoch: 07 October)

Event Time Altitude Azimuth Distance (km) Brightness Sun altitude
Exits shadow 12:05:21 36° 207° (SSW) 971 4.1 -18.9°
Maximum altitude 12:07:01 68° 279° (W) 658 3.4 -18.6°
Drops below altitude 10° 12:11:22 10° 2° (N) 1,974 6.5 -17.8°
Sets 12:13:37 0° 6° (N) 2,887 7.4 -17.4°
